Location: Carrer del Canonge
(41.4901°N, 2.2931°E)
Time: 03:55:21
(UTC+00:00)

Meteor 1-24 Rocket - Pass Details

Date: 18 September 2020
Orbit: 790 x 927 km, 81.2° (Epoch: 25 October)

Event Time Altitude Azimuth Distance (km) Brightness Sun altitude
Rises 20:50:04 0° 348° (NNW) 3,356 7.5 -31.7°
Reaches altitude 10° 20:52:26 10° 346° (NNW) 2,436 6.6 -32.0°
Enters shadow 20:56:34 51° 329° (NNW) 1,051 4.4 -32.7°
